Location: *
(57.8420°S, 159.8600°W)
Time: 04:49:36
(UTC+00:00)

Meteor 1-10 Rocket - Pass Details

Date: 18 May 2021
Orbit: 837 x 909 km, 81.3° (Epoch: 20 June)

Event Time Altitude Azimuth Distance (km) Brightness Sun altitude
Rises 06:14:06 0° 197° (SSW) 3,480 7.7 -29.5°
Reaches altitude 10° 06:16:35 10° 199° (SSW) 2,528 7.0 -29.8°
Maximum altitude 06:22:16 68° 280° (W) 924 4.4 -30.6°
Enters shadow 06:22:16 68° 281° (W) 924 4.4 -30.6°
